GW1682 Weather Reports


Display with metric or nautical units.
time (UTC)temp
F
wind
direction
speed
MPH
gust
MPH
rain 1hr
in
rain 24hr
in
rain mn
in
humidity
%
barometer
mb
20260905215004 79 151 2.0 3.0 0.00 0.00 0.00 35 1016.5
20260905212005 80 175 0.0 0.0 0.00 0.00 0.00 35 1016.8
20260905210501 81 238 0.0 0.0 0.00 0.00 0.00 35 1016.7
20260905205005 80 130 0.0 0.0 0.00 0.00 0.00 35 1016.6
20260905203502 80 171 0.0 2.0 0.00 0.00 0.00 35 1016.5
20260905202002 80 59 0.0 2.0 0.00 0.00 0.00 35 1016.5
20260905200507 81 16 1.0 3.0 0.00 0.00 0.00 35 1016.6
20260905195003 82 0 0.0 2.0 0.00 0.00 0.00 33 1016.6
20260905193502 82 66 0.0 1.0 0.00 0.00 0.00 34 1016.6
20260905192002 82 182 0.0 4.0 0.00 0.00 0.00 34 1016.6
20260905185001 82 124 1.0 4.0 0.00 0.00 0.00 35 1016.6
20260905183504 83 63 2.0 6.0 0.00 0.00 0.00 35 1016.6
20260905175005 83 28 2.0 6.0 0.00 0.00 0.00 35 1016.2
20260905173501 83 68 1.0 3.0 0.00 0.00 0.00 36 1016.1
20260905172001 84 103 0.0 4.0 0.00 0.00 0.00 34 1016.0
20260905163501 86 6 2.0 6.0 0.00 0.00 0.00 33 1015.8
20260905162005 87 1 1.0 10.0 0.00 0.00 0.00 32 1015.8
20260905160501 87 1 4.0 9.0 0.00 0.00 0.00 31 1015.9
20260905153501 88 82 5.0 12.0 0.00 0.00 0.00 30 1015.9
20260905150501 89 344 4.0 11.0 0.00 0.00 0.00 31 1015.9
20260905145001 89 310 5.0 10.0 0.00 0.00 0.00 31 1015.7
20260905142004 90 195 2.0 12.0 0.00 0.00 0.00 32 1015.6
20260905140501 89 14 4.0 13.0 0.00 0.00 0.00 32 1015.7
20260905135001 89 11 5.0 12.0 0.00 0.00 0.00 32 1015.8
20260905133501 91 348 2.0 12.0 0.00 0.00 0.00 32 1015.8
20260905132003 90 343 5.0 11.0 0.00 0.00 0.00 31 1015.9
20260905130503 90 358 3.0 12.0 0.00 0.00 0.00 31 1015.9
20260905125002 90 103 5.0 16.0 0.00 0.00 0.00 31 1016.0
20260905123501 90 14 5.0 13.0 0.00 0.00 0.00 30 1016.1
20260905120500 89 135 4.0 15.0 0.00 0.00 0.00 33 1016.5
20260905115001 89 347 4.0 12.0 0.00 0.00 0.00 33 1016.5
20260905113503 89 0 4.0 12.0 0.00 0.00 0.00 32 1016.5
20260905110501 89 4 5.0 13.0 0.00 0.00 0.00 32 1016.6
20260905105000 88 353 3.0 15.0 0.00 0.00 0.00 33 1016.7
20260905103501 88 8 5.0 15.0 0.00 0.00 0.00 33 1016.8
20260905102001 88 0 9.0 19.0 0.00 0.00 0.00 31 1016.8
20260905100504 88 0 7.0 18.0 0.00 0.00 0.00 32 1016.8
20260905095001 87 358 8.0 14.0 0.00 0.00 0.00 32 1016.8
20260905093508 87 120 5.0 18.0 0.00 0.00 0.00 32 1016.7
20260905092003 87 0 10.0 19.0 0.00 0.00 0.00 32 1016.8
20260905090504 87 337 11.0 20.0 0.00 0.00 0.00 31 1016.9
20260905082001 85 344 10.0 23.0 0.00 0.00 0.00 36 1016.9
20260905080504 85 343 7.0 20.0 0.00 0.00 0.00 36 1016.8
20260905075002 85 1 4.0 14.0 0.00 0.00 0.00 38 1016.8
20260905073501 84 59 6.0 14.0 0.00 0.00 0.00 39 1016.8
20260905072001 83 1 6.0 13.0 0.00 0.00 0.00 42 1016.7
20260905070501 82 358 8.0 21.0 0.00 0.00 0.00 42 1016.5
20260905065002 82 8 6.0 20.0 0.00 0.00 0.00 43 1016.3
20260905063501 82 345 5.0 12.0 0.00 0.00 0.00 43 1016.5
20260905062001 81 264 4.0 10.0 0.00 0.00 0.00 45 1016.8
20260905060507 80 353 2.0 7.0 0.00 0.00 0.00 46 1016.6
20260905055003 80 20 3.0 10.0 0.00 0.00 0.00 47 1016.6
20260905053502 79 30 0.0 4.0 0.00 0.00 0.00 49 1016.5
20260905052002 78 11 0.0 2.0 0.00 0.00 0.00 51 1016.5
20260905050503 77 0 0.0 3.0 0.00 0.00 0.00 53 1016.4
20260905045008 76 13 0.0 2.0 0.00 0.00 0.00 52 1016.3
20260905042003 76 173 0.0 1.0 0.00 0.00 0.00 53 1016.1
20260905040503 76 219 0.0 3.0 0.00 0.00 0.00 54 1015.8
20260905035008 76 161 2.0 5.0 0.00 0.00 0.00 54 1015.7
20260905033504 78 206 0.0 2.0 0.00 0.00 0.00 52 1015.6
20260905032002 78 265 2.0 5.0 0.00 0.00 0.00 52 1015.5
20260905030503 78 337 1.0 5.0 0.00 0.00 0.00 52 1015.4
20260905025005 77 324 2.0 6.0 0.00 0.00 0.00 54 1015.3
20260905022003 78 312 3.0 9.0 0.00 0.00 0.00 52 1015.2
20260905012006 78 78 2.0 6.0 0.00 0.00 0.00 49 1015.5
20260905010502 79 180 1.0 5.0 0.00 0.00 0.00 48 1015.5
20260905005001 79 1 2.0 7.0 0.00 0.00 0.00 46 1015.4
20260905003504 80 14 3.0 7.0 0.00 0.00 0.00 44 1015.3
20260905002001 80 344 2.0 6.0 0.00 0.00 0.00 43 1015.4
20260905000502 80 345 2.0 12.0 0.00 0.00 0.00 43 1015.4
20260904235002 79 24 3.0 6.0 0.00 0.00 0.00 43 1015.6
20260904233501 79 56 0.0 0.0 0.00 0.00 0.00 43 1015.7
20260904232001 79 124 0.0 1.0 0.00 0.00 0.00 43 1015.8
20260904230502 79 42 0.0 0.0 0.00 0.00 0.00 42 1015.7
20260904225006 80 353 0.0 3.0 0.00 0.00 0.00 42 1015.8
20260904223505 80 27 0.0 2.0 0.00 0.00 0.00 41 1015.9
20260904222003 80 23 0.0 7.0 0.00 0.00 0.00 40 1015.9
20260904220503 80 141 0.0 2.0 0.00 0.00 0.00 41 1015.9